Ainsworth, NE

2:24 PM CDT on July 22, 2017 (GMT -0500)
Ainsworth Municipal

Weather History for KANW - July, 2013

Change the Weather History Date:

Thursday, July 4, 2013

  Actual Average Record
Temperature  
Mean Temperature 76 °F -  
Max Temperature 93 °F 81 °F 100 °F (2012)
Min Temperature 58 °F 59 °F 46 °F (1997)
Cooling Degree Days 10    
Growing Degree Days 26 (Base 50)    
Moisture  
Dew Point 49 °F    
Average Humidity 45    
Maximum Humidity 68    
Minimum Humidity 17    
Precipitation  
Precipitation 0.00 in - - ()
Sea Level Pressure  
Sea Level Pressure 29.88 in    
Wind  
Wind Speed 13 mph (South)    
Max Wind Speed 18 mph    
Max Gust Speed 25 mph    
Visibility 10 miles    
Events Thunderstorm    
Averages and records for this station are not official NWS values.
T = Trace of Precipitation, MM = Missing Value Source: NWS Daily Summary

Daily Weather History Graph

Daily Weather History Graph

Search for Another Location

Airport or City:

Trip Planner

Search our weather history database for the weather conditions in past years. The results will help you decide how hot, cold, wet, or windy it might be!

Date:

Astronomy

Jul. 04, 2013 Rise Set
Actual Time 6:08 AM CDT 9:20 PM CDT
Civil Twilight 5:33 AM CDT 9:55 PM CDT
Nautical Twilight 4:48 AM CDT 10:39 PM CDT
Astronomical Twilight 3:54 AM CDT 11:33 PM CDT
Moon 3:27 AM CDT (7/4) 6:25 PM CDT (7/4)
Length of Visible Light 16h 21m
Length of Day
15h 12m
Waning Crescent, 11% of the Moon is Illuminated
Jul 4
Waning Crescent
Jul 8
New
Jul 15
First Quarter
Jul 22
Full
Jul 29
Last Quarter

Hourly Weather History & Observations

Time (CDT) Temp. Heat Index Dew Point Humidity Pressure Visibility Wind Dir Wind Speed Gust Speed Precip Events Conditions
12:15 AM 69.1 °F - 47.8 °F 47% 29.94 in 10.0 mi South 17.3 mph 23.0 mph N/A   Clear
12:35 AM 68.2 °F - 47.8 °F 48% 29.94 in 10.0 mi South 17.3 mph 21.9 mph N/A   Clear
12:55 AM 68.2 °F - 47.5 °F 47% 29.93 in 10.0 mi South 17.3 mph - N/A   Clear
1:15 AM 68.2 °F - 47.3 °F 47% 29.93 in 10.0 mi South 17.3 mph 24.2 mph N/A   Clear
1:35 AM 67.8 °F - 47.3 °F 48% 29.93 in 10.0 mi South 16.1 mph 24.2 mph N/A   Clear
1:55 AM 67.1 °F - 47.1 °F 49% 29.92 in 10.0 mi South 15.0 mph - N/A   Clear
2:15 AM 66.4 °F - 47.3 °F 50% 29.92 in 10.0 mi South 17.3 mph - N/A   Clear
2:35 AM 65.5 °F - 47.3 °F 52% 29.92 in 10.0 mi South 15.0 mph - N/A   Clear
2:55 AM 64.9 °F - 47.3 °F 53% 29.92 in 10.0 mi South 13.8 mph - N/A   Clear
3:15 AM 64.0 °F - 47.7 °F 55% 29.92 in 10.0 mi South 11.5 mph - N/A   Clear
3:35 AM 63.1 °F - 47.7 °F 57% 29.91 in 10.0 mi South 10.4 mph - N/A   Clear
3:55 AM 63.1 °F - 47.5 °F 57% 29.90 in 10.0 mi South 12.7 mph - N/A   Clear
4:15 AM 62.6 °F - 47.7 °F 58% 29.90 in 10.0 mi South 12.7 mph - N/A   Clear
4:35 AM 61.9 °F - 47.8 °F 60% 29.90 in 10.0 mi South 11.5 mph - N/A   Clear
4:55 AM 60.8 °F - 48.0 °F 63% 29.90 in 10.0 mi South 11.5 mph - N/A   Clear
5:15 AM 60.1 °F - 48.0 °F 64% 29.89 in 10.0 mi South 10.4 mph - N/A   Clear
5:35 AM 59.9 °F - 48.2 °F 65% 29.89 in 10.0 mi South 9.2 mph - N/A   Clear
5:55 AM 59.0 °F - 48.0 °F 67% 29.89 in 10.0 mi South 9.2 mph - N/A   Clear
6:15 AM 58.6 °F - 48.2 °F 68% 29.89 in 10.0 mi South 10.4 mph - N/A   Clear
6:35 AM 59.0 °F - 48.2 °F 67% 29.89 in 10.0 mi South 10.4 mph - N/A   Clear
6:55 AM 60.1 °F - 48.4 °F 65% 29.89 in 10.0 mi South 11.5 mph - N/A   Clear
7:15 AM 61.3 °F - 48.6 °F 63% 29.89 in 10.0 mi South 11.5 mph - N/A   Clear
7:35 AM 63.3 °F - 48.6 °F 59% 29.89 in 10.0 mi South 12.7 mph 16.1 mph N/A   Clear
7:55 AM 65.8 °F - 48.2 °F 53% 29.89 in 10.0 mi South 12.7 mph - N/A   Clear
8:15 AM 67.3 °F - 47.8 °F 50% 29.89 in 10.0 mi SSW 15.0 mph - N/A   Clear
8:35 AM 68.5 °F - 48.7 °F 49% 29.88 in 10.0 mi South 15.0 mph - N/A   Clear
8:55 AM 71.1 °F - 49.5 °F 46% 29.89 in 10.0 mi SSW 12.7 mph - N/A   Clear
9:15 AM 73.4 °F - 48.9 °F 42% 29.89 in 10.0 mi SSW 11.5 mph - N/A   Clear
9:35 AM 75.0 °F - 48.6 °F 39% 29.88 in 10.0 mi SSW 13.8 mph - N/A   Clear
9:55 AM 76.6 °F - 49.1 °F 38% 29.88 in 10.0 mi SSW 13.8 mph - N/A   Clear
10:35 AM 79.9 °F - 48.7 °F 34% 29.88 in 10.0 mi SSW 15.0 mph - N/A   Clear
10:55 AM 81.7 °F - 49.5 °F 32% 29.88 in 10.0 mi SSW 13.8 mph - N/A   Clear
11:15 AM 82.8 °F - 49.5 °F 31% 29.87 in 10.0 mi South 13.8 mph 18.4 mph N/A   Clear
11:55 AM 85.3 °F - 48.7 °F 28% 29.87 in 10.0 mi SSW 13.8 mph - N/A   Clear
12:15 PM 86.4 °F - 49.1 °F 27% 29.87 in 10.0 mi South 15.0 mph - N/A   Clear
12:35 PM 87.4 °F - 48.4 °F 26% 29.87 in 10.0 mi SSW 15.0 mph 19.6 mph N/A   Clear
12:55 PM 88.5 °F - 48.9 °F 25% 29.87 in 10.0 mi SSW 13.8 mph - N/A   Clear
1:15 PM 89.1 °F - 48.6 °F 25% 29.87 in 10.0 mi SSW 9.2 mph 23.0 mph N/A   Clear
2:15 PM 91.0 °F - 46.6 °F 22% 29.85 in 10.0 mi South 16.1 mph - N/A   Clear
2:35 PM 91.6 °F - 45.0 °F 20% 29.85 in 10.0 mi South 17.3 mph 24.2 mph N/A   Clear
2:55 PM 92.3 °F - 44.4 °F 19% 29.84 in 10.0 mi SSW 16.1 mph 25.3 mph N/A   Clear
3:15 PM 92.5 °F - 43.9 °F 19% 29.84 in 10.0 mi South 15.0 mph 23.0 mph N/A   Clear
3:35 PM 92.5 °F - 42.8 °F 18% 29.84 in 10.0 mi SSW 17.3 mph 23.0 mph N/A   Clear
3:55 PM 91.0 °F - 42.6 °F 19% 29.83 in 10.0 mi SSW 16.1 mph 23.0 mph N/A   Clear
4:15 PM 93.0 °F - 41.9 °F 17% 29.83 in 10.0 mi SSW 18.4 mph 23.0 mph N/A   Clear
4:35 PM 92.3 °F - 42.6 °F 18% 29.83 in 10.0 mi SSW 12.7 mph 20.7 mph N/A   Clear
5:15 PM 92.5 °F - 40.8 °F 17% 29.81 in 10.0 mi South 15.0 mph - N/A   Clear
5:55 PM 87.3 °F - 44.6 °F 23% 29.82 in 10.0 mi SSW 11.5 mph - N/A Thunderstorm Thunderstorm
7:35 PM 82.0 °F 81.6 °F 55.9 °F 41% 29.85 in 10.0 mi ESE 5.8 mph - N/A   Clear
7:55 PM 80.8 °F 80.6 °F 54.9 °F 41% 29.85 in 10.0 mi East 4.6 mph - N/A   Clear
8:15 PM 80.1 °F 80.4 °F 57.0 °F 45% 29.85 in 10.0 mi ESE 6.9 mph - N/A   Scattered Clouds
8:35 PM 79.0 °F - 57.2 °F 47% 29.85 in 10.0 mi SE 5.8 mph - N/A   Scattered Clouds
8:55 PM 76.3 °F - 56.7 °F 51% 29.85 in 10.0 mi SE 4.6 mph - N/A   Clear
9:15 PM 73.8 °F - 55.8 °F 53% 29.85 in 10.0 mi ESE 6.9 mph - N/A   Clear
9:35 PM 71.6 °F - 56.3 °F 58% 29.85 in 10.0 mi SE 8.1 mph - N/A   Clear
9:55 PM 70.7 °F - 56.7 °F 61% 29.85 in 10.0 mi SSE 10.4 mph - N/A   Clear
10:15 PM 73.4 °F - 54.0 °F 50% 29.86 in 10.0 mi SE 8.1 mph - N/A   Clear
10:35 PM 70.3 °F - 54.3 °F 57% 29.87 in 10.0 mi Calm Calm - N/A   Clear
10:55 PM 71.2 °F - 53.4 °F 53% 29.87 in 10.0 mi Calm Calm - N/A   Clear
11:15 PM 70.0 °F - 52.7 °F 54% 29.86 in 10.0 mi SSE 3.5 mph - N/A   Clear
11:35 PM 70.5 °F - 52.5 °F 53% 29.87 in 10.0 mi Calm Calm - N/A   Clear
11:55 PM 70.0 °F - 54.3 °F 57% 29.87 in 7.0 mi Calm Calm - N/A   Clear